STARLINK-2222, 48572

Orbit data source: Space-Track

STARLINK-2222, 48572 is a payload satellite owned by SpaceX/Seattle (US) in LEO that was launched on Sat, 15 May 2021 UTC via an FALCON 9 launch vehicle from the Air Force Eastern Test Range (AFETR). Payload-class satellites include a variety of spacecraft equipped with specific instruments for various scientific and technological missions. These include communications satellites like Starlink; space stations such as the ISS; scientific satellites like the Hubble; Earth observation satellites from companies like Planet Labs, Umbra, and HawkEye 360; GPS; miniature CubeSats for education and research; and military/defense satellites.

Loading next visibility...
Identifier
48572, 2021-041V
Orbit
LEO
Country
Flag of USUS
Related business
Manufacturer
SpaceX/Seattle
Mission
Operational Commercial Communications
Bus & Motor
STARLINK, Unknown motor
Mass
260 kg wet, ~248 kg dry
Launch date (UTC)
2021-05-15 (5 years ago)
Launch vehicle
FALCON 9
Launch site
Air Force Eastern Test Range (AFETR)
Object type
Payload
Rocket body
Debris
Shape & HBR
Box + 1 Pan, 10.1 m
Radar Cross Section
13.562 m², Large (>1 m²)

Expand to show TLE details & history
Last TLE update: 20 hours ago

TLE from 20 hours ago
0 STARLINK-2222
1 48572U 21041V   25348.76478382 -.00003337  00000-0 -20523-3 0  9994
2 48572  53.0540 162.8588 0001622  90.5053 269.6122 15.06398500252268
Epoch: 2025-12-14T18:21Z
TLE epoch observation values (Epoch: 2025-12-14T18:21:17.322Z)
Latitude
0.00001°
Longitude
163.86362°
Altitude
548.103 km
Speed
7.589 km/s
True Right ascension
10h 51m 26s
True Declination
0° 00' 00"
Sunlit
Object was in daylight at epoch
Visualization orbit readout
Latitude
Unknown
Longitude
Unknown
Altitude
Unknown
Speed
Unknown
Apparent Right ascension
Unknown
Apparent Declination
Unknown
Sunlit
N/A
Visualization observer readout
Local Sidereal Time
13:19:52
Azimuth
Unknown
Elevation
Unknown
Doppler factor
Unknown
Orbital elements
Apogee altitude
548.61 km
Perigee altitude
546.364 km
Semi-major axis
6,925.624 km
Eccentricity
0.00016
Inclination
53.054°
RAAN
162.8588°
Arg. of periapsis
90.5053°
True anomaly
269.59361°
Mean anomaly
269.6122°
Eccentric anomaly
269.60291°
Mean motion
3.76578 °/min
Orbital period
95.6 mins
BSTAR
-0.00020523
Loading maneuver chart data...
Computing Atmospheric mass density...
Loading historical data...
Loading historical data...
Loading historical data...
Loading historical data...
Loading historical data...
Loading historical data...
Loading historical data...

Documentation

Showing up to 5 results
|